Back to catalog

FENGYUN 1C DEB

AlivePO
NORAD 36203·DEBRIS·🇨🇳 China

Launched May 10, 1999 from Taiyuan Satellite Launch Center

Loading…

Next Passes (next 24 hours)

TLE

FreshSource: Space-Track

Epoch: Sep 14, 2026, 17:04 UTC

1 36203U 99025DUC 26257.71133552  .00008623  00000-0  10026-2 0  9998
2 36203  99.1203 243.9924 0076045   3.8143 356.3631 14.83545567675142

Track FENGYUN 1C DEB in real time with AllMySat

Download on the App Store